This is the latest recevied weather packets stored in our database for station/object KN6CW-3. If no packets are shown the sender has not sent any weather packets the latest 10 day(s).
| Time | Temp. | Humidity | Pressure | Rain* | Wind** | Luminosity | Snow |
|---|---|---|---|---|---|---|---|
| 1777709979 | 4.44° C | 96% | 1011.4 hPa | 0 mm | - | 0 W/m² | - |
| 1777709679 | 4.44° C | 96% | 1011.4 hPa | 0 mm | - | 0 W/m² | - |
| 1777709378 | 4.44° C | 96% | 1011.4 hPa | 0 mm | - | 0 W/m² | - |
| 1777709078 | 4.44° C | 96% | 1011.4 hPa | 0 mm | - | 0 W/m² | - |
| 1777708778 | 4.44° C | 96% | 1011.4 hPa | 0 mm | - | 0 W/m² | - |
| 1777708478 | 4.44° C | 96% | 1011.3 hPa | 0 mm | - | 0 W/m² | - |
| 1777708177 | 4.44° C | 96% | 1011.3 hPa | 0 mm | - | 0 W/m² | - |
| 1777707877 | 5° C | 96% | 1011.4 hPa | 0 mm | - | 0 W/m² | - |
| 1777707577 | 5° C | 96% | 1011.4 hPa | 0.25 mm | - | 0 W/m² | - |
| 1777707276 | 5° C | 96% | 1011.4 hPa | 0.51 mm | - | 0 W/m² | - |
| 1777706976 | 5° C | 96% | 1011.3 hPa | 0.76 mm | - | 0 W/m² | - |
| 1777706676 | 5° C | 96% | 1011.4 hPa | 1.02 mm | - | 0 W/m² | - |
| 1777706376 | 5° C | 96% | 1011.7 hPa | 1.02 mm | - | 0 W/m² | - |
| 1777706075 | 5.56° C | 96% | 1011.6 hPa | 1.27 mm | - | 0 W/m² | - |
| 1777705775 | 5.56° C | 96% | 1011.5 hPa | 1.52 mm | - | 0 W/m² | - |
| 1777705475 | 5.56° C | 96% | 1011.6 hPa | 1.52 mm | - | 0 W/m² | - |
| 1777705174 | 5.56° C | 96% | 1011.6 hPa | 1.78 mm | - | 0 W/m² | - |
| 1777704874 | 5.56° C | 96% | 1011.7 hPa | 2.03 mm | - | 0 W/m² | - |
| 1777704574 | 5.56° C | 96% | 1011.7 hPa | 2.29 mm | - | 0 W/m² | - |
| 1777704273 | 5.56° C | 96% | 1011.5 hPa | 2.29 mm | - | 0 W/m² | - |
| 1777703973 | 5.56° C | 96% | 1011.7 hPa | 2.29 mm | - | 0 W/m² | - |
| 1777703673 | 5.56° C | 96% | 1011.8 hPa | 2.03 mm | - | 0 W/m² | - |
| 1777703373 | 5.56° C | 96% | 1012 hPa | 2.03 mm | - | 0 W/m² | - |
| 1777703072 | 5.56° C | 96% | 1012.1 hPa | 1.78 mm | - | 0 W/m² | - |
| 1777702772 | 5.56° C | 96% | 1012.3 hPa | 2.03 mm | - | 0 W/m² | - |
* Rain latest hour (hover to see other rain measurements)
** Current wind speed in m/s (hover to see current wind gust speed)